Waarnemingen

Advertentie
Mijn weer
London/Heathrow Intl, Groot Brittannië (3772): temperatuur & dauwpunt: 15.02.2019 18:00:00 - 21.02.2019 18:00:00 (GMT)London/Heathrow Intl, Groot Brittannië (3772): windsnelheid: 15.02.2019 18:00:00 - 21.02.2019 18:00:00 (GMT)London/Heathrow Intl, Groot Brittannië (3772): windrichting: 15.02.2019 18:00:00 - 21.02.2019 18:00:00 (GMT)London/Heathrow Intl, Groot Brittannië (3772): luchtdruk: 15.02.2019 18:00:00 - 21.02.2019 18:00:00 (GMT)London/Heathrow Intl, Groot Brittannië (3772): zicht: 15.02.2019 18:00:00 - 21.02.2019 18:00:00 (GMT)London/Heathrow Intl, Groot Brittannië (3772): Zonneschijnduur: 15.02.2019 18:00:00 - 21.02.2019 18:00:00 (GMT)London/Heathrow Intl, Groot Brittannië (3772): neerslag: 15.02.2019 18:00:00 - 21.02.2019 18:00:00 (GMT)
Datum & Tijd tt [°C] td [°C] ff [km/u] ff [kn] dd ppp [hPa] vv [km] sd [min] rr [mm]
21.02.2019 18:00:00 12,8 8,8 15 8 ZW 1028,6 10 0 0,0
21.02.2019 17:00:00 13,8 8,2 15 8 ZW 1027,9 10 54 0,0
21.02.2019 16:00:00 14,8 8,3 13 7 ZW 1027,2 25 60 0,0
21.02.2019 15:00:00 14,8 8,1 16 9 WZW 1026,9 10 60 0,0
21.02.2019 14:00:00 14,9 8,7 18 10 ZW 1026,6 23 60 0,0
21.02.2019 13:00:00 14,2 8,7 16 9 ZW 1026,7 10 60 0,0
21.02.2019 12:00:00 13,3 8,4 18 10 WZW 1026,8 10 36 0,0
21.02.2019 11:00:00 11,0 8,1 16 9 WZW 1026,5 17 0 0,0
21.02.2019 10:00:00 10,5 8,4 18 10 WZW 1025,7 10 0 0,0
21.02.2019 09:00:00 9,7 8,0 18 10 WZW 1025,5 10 0 0,0
21.02.2019 08:00:00 9,4 7,9 16 9 WZW 1024,9 10 0 0,0
21.02.2019 07:00:00 9,1 7,6 15 8 ZW 1023,9 10 0 0,0
21.02.2019 06:00:00 8,5 6,8 11 6 ZZW 1023,5 10 0 0,0
21.02.2019 05:00:00 8,1 6,8 11 6 ZW 1023,1 10 0 0,0
21.02.2019 04:00:00 7,7 6,3 9 5 ZZO 1022,8 10 0 0,0
21.02.2019 03:00:00 7,7 6,1 11 6 Z 1023,2 9 0 0,0
21.02.2019 02:00:00 7,3 6,3 8 4 Z 1023,3 10 0 0,0
21.02.2019 01:00:00 6,6 5,3 8 4 ZW 1023,4 10 0 0,0
21.02.2019 00:00:00 6,7 5,0 8 4 ZZW 1022,8 10 - 0,0
20.02.2019 23:00:00 7,8 6,1 11 6 ZZW 1022,5 10 0 0,0
20.02.2019 22:00:00 7,2 5,4 11 6 ZZW 1022,1 10 0 0,0
20.02.2019 21:00:00 8,0 5,9 11 6 ZZW 1022,0 18 0 0,0
20.02.2019 20:00:00 8,5 5,8 15 8 ZZW 1021,8 19 0 0,0
20.02.2019 19:00:00 9,4 5,8 16 9 ZZW 1021,3 27 0 0,0
20.02.2019 18:00:00 10,1 5,9 21 11 ZZW 1020,7 26 0 0,0
20.02.2019 17:00:00 11,0 5,4 22 12 ZW 1020,5 29 24 0,0
20.02.2019 16:00:00 12,3 4,9 24 13 ZW 1020,3 24 48 0,0
20.02.2019 15:00:00 12,6 5,4 22 12 ZW 1020,2 40 18 -
20.02.2019 14:00:00 13,0 5,6 24 13 ZW 1020,1 14 30 -
20.02.2019 13:00:00 11,7 5,7 24 13 ZW 1020,4 10 24 0,0
20.02.2019 12:00:00 10,8 6,4 21 11 ZW 1020,5 10 6 0,0
20.02.2019 11:00:00 10,7 6,7 22 12 ZW 1020,5 10 24 0,0
20.02.2019 10:00:00 9,2 5,8 22 12 ZW 1020,1 10 18 0,0
20.02.2019 09:00:00 8,6 6,1 13 7 ZZW 1019,5 10 36 0,0
20.02.2019 08:00:00 7,2 5,6 13 7 Z 1019,1 12 0 0,0
20.02.2019 07:00:00 7,3 5,8 15 8 ZZW 1018,6 10 0 0,0
20.02.2019 06:00:00 7,0 5,8 11 6 ZZW 1018,3 9 0 0,0
20.02.2019 05:00:00 6,9 5,6 15 8 ZZW 1018,3 9 0 0,0
20.02.2019 04:00:00 6,9 5,4 15 8 ZZW 1018,2 10 0 0,0
20.02.2019 03:00:00 6,8 5,2 16 9 ZZW 1018,5 14 0 0,0
20.02.2019 02:00:00 6,5 4,8 15 8 Z 1019,0 10 0 0,0
20.02.2019 01:00:00 6,8 4,8 13 7 Z 1019,1 16 0 0,0
20.02.2019 00:00:00 7,2 5,2 16 9 ZZW 1019,1 10 - 0,0
19.02.2019 23:00:00 7,2 5,1 16 9 ZZW 1019,2 10 0 0,0
19.02.2019 22:00:00 7,9 5,3 16 9 ZZW 1019,2 18 0 0,0
19.02.2019 21:00:00 7,8 5,2 18 10 ZZW 1019,1 10 0 0,0
19.02.2019 20:00:00 8,2 5,2 18 10 ZZW 1019,1 18 0 0,0
19.02.2019 19:00:00 8,4 4,5 22 12 ZZW 1019,0 22 0 0,0
19.02.2019 18:00:00 8,9 3,8 16 9 ZZW 1018,6 10 0 0,0
19.02.2019 17:00:00 9,6 4,0 18 10 ZW 1018,6 29 6 0,0
19.02.2019 16:00:00 10,3 4,1 16 9 WZW 1018,7 35 0 0,0
19.02.2019 15:00:00 10,9 3,2 24 13 WZW 1018,9 10 30 0,0
19.02.2019 14:00:00 10,2 2,6 22 12 WZW 1019,2 10 30 0,0
19.02.2019 13:00:00 11,2 5,1 18 10 W 1019,4 10 42 0,0
19.02.2019 12:00:00 10,3 4,9 22 12 WZW 1019,8 10 36 0,0
19.02.2019 11:00:00 9,9 5,7 16 9 ZW 1019,9 10 60 0,0
19.02.2019 10:00:00 8,5 5,6 11 6 ZW 1019,8 10 60 0,0
19.02.2019 09:00:00 5,5 4,0 8 4 ZZW 1019,5 10 48 0,0
19.02.2019 08:00:00 4,1 3,3 8 4 ZW 1019,1 13 0 0,0
19.02.2019 07:00:00 3,7 3,1 13 7 ZW 1018,3 14 0 0,0
19.02.2019 06:00:00 2,8 2,3 9 5 ZW 1018,0 12 0 0,0
19.02.2019 05:00:00 3,5 2,8 2 1 ZW 1017,8 10 0 0,0
19.02.2019 04:00:00 3,2 2,1 11 6 WZW 1017,6 10 0 0,0
19.02.2019 03:00:00 3,8 2,4 9 5 WZW 1017,4 10 0 0,2
19.02.2019 02:00:00 4,3 3,1 13 7 WZW 1017,3 10 0 0,0
19.02.2019 01:00:00 3,9 2,7 11 6 WZW 1017,0 10 0 0,0
19.02.2019 00:00:00 4,7 3,4 16 9 ZW 1016,6 10 - 0,0
18.02.2019 23:00:00 5,2 3,9 16 9 ZW 1016,5 10 0 0,0
18.02.2019 22:00:00 5,0 3,8 15 8 ZW 1016,6 30 0 0,0
18.02.2019 21:00:00 5,5 4,2 16 9 ZW 1016,2 10 0 0,0
18.02.2019 20:00:00 6,2 4,7 18 10 ZW 1015,9 10 0 0,0
18.02.2019 19:00:00 6,9 5,3 16 9 ZW 1015,4 10 0 0,0
18.02.2019 18:00:00 7,6 5,9 18 10 ZW 1014,6 40 0 0,0
18.02.2019 17:00:00 8,7 6,3 18 10 ZW 1014,3 35 0 0,0
18.02.2019 16:00:00 9,0 7,0 18 10 ZW 1014,3 10 0 0,0
18.02.2019 15:00:00 8,9 7,3 16 9 ZZW 1014,3 10 0 0,0
18.02.2019 14:00:00 8,6 7,3 21 11 Z 1014,4 10 0 0,2
18.02.2019 13:00:00 8,3 6,9 18 10 Z 1015,1 10 0 0,8
18.02.2019 12:00:00 9,0 7,0 18 10 ZW 1015,3 18 0 0,8
18.02.2019 11:00:00 9,1 7,3 15 8 ZW 1015,5 10 0 0,8
18.02.2019 10:00:00 9,5 8,0 11 6 Z 1015,5 9 0 0,0
18.02.2019 09:00:00 9,0 7,6 15 8 Z 1015,5 9 0 0,0
18.02.2019 08:00:00 8,6 7,5 16 9 Z 1015,3 9 0 0,0
18.02.2019 07:00:00 8,1 7,1 13 7 Z 1015,0 9 0 0,0
18.02.2019 06:00:00 8,1 7,0 13 7 ZZW 1014,9 8 0 0,0
18.02.2019 05:00:00 7,7 6,9 11 6 Z 1015,1 9 0 0,0
18.02.2019 04:00:00 8,0 6,8 9 5 Z 1015,4 9 0 0,0
18.02.2019 03:00:00 8,0 7,0 11 6 ZZW 1015,7 10 0 0,0
18.02.2019 02:00:00 8,4 6,8 11 6 ZZW 1016,0 9 0 0,0
18.02.2019 01:00:00 9,5 7,3 13 7 ZZW 1016,3 10 0 0,0
18.02.2019 00:00:00 9,9 7,8 11 6 ZZW 1016,2 10 - 0,0
17.02.2019 23:00:00 10,1 8,1 13 7 ZZW 1016,1 10 0 0,0
17.02.2019 22:00:00 10,2 8,4 13 7 ZZW 1015,9 10 0 0,0
17.02.2019 21:00:00 9,8 8,1 13 7 ZZW 1015,9 9 0 0,0
17.02.2019 20:00:00 9,9 7,9 11 6 Z 1015,7 11 0 0,0
17.02.2019 19:00:00 10,2 7,8 15 8 ZZW 1015,8 10 0 0,0
17.02.2019 18:00:00 11,0 7,8 16 9 ZZW 1015,4 10 0 0,0
17.02.2019 17:00:00 11,7 8,2 18 10 ZZW 1014,7 11 0 0,0
17.02.2019 16:00:00 13,0 8,8 22 12 ZW 1014,4 17 18 0,0
17.02.2019 15:00:00 14,8 9,3 21 11 ZZW 1014,0 10 24 0,0
17.02.2019 14:00:00 14,5 7,8 21 11 ZW 1014,0 10 54 0,0
17.02.2019 13:00:00 14,8 7,3 18 10 ZZW 1014,3 10 60 0,0
17.02.2019 12:00:00 13,3 6,1 24 13 ZZW 1014,6 10 60 -
17.02.2019 11:00:00 12,1 5,9 22 12 Z 1014,6 25 60 -
17.02.2019 10:00:00 10,1 6,0 16 9 ZZO 1014,6 16 48 0,0
17.02.2019 09:00:00 8,1 5,8 13 7 ZO 1014,9 10 18 0,0
17.02.2019 08:00:00 6,9 5,4 16 9 ZZO 1015,6 10 0 0,0
17.02.2019 07:00:00 6,3 5,2 13 7 Z 1015,7 6 0 0,0
17.02.2019 06:00:00 5,2 4,9 11 6 ZZO 1015,9 4,5 0 0,0
17.02.2019 05:00:00 4,8 4,5 9 5 ZO 1016,4 4,8 0 0,0
17.02.2019 04:00:00 4,8 4,5 9 5 ZO 1017,2 4,5 0 0,0
17.02.2019 03:00:00 5,1 5,0 11 6 ZO 1018,1 6 0 0,0
17.02.2019 02:00:00 6,9 6,7 9 5 ZO 1019,1 0,1 0 0,0
17.02.2019 01:00:00 7,2 6,2 5 3 ZZO 1020,0 2,9 0 0,0
17.02.2019 00:00:00 9,9 7,8 9 5 ZZO 1016,2 6 - 0,0
16.02.2019 23:00:00 9,6 8,5 5 3 ZO 1021,0 8 0 0,0
16.02.2019 22:00:00 10,1 9,0 8 4 ZZO 1021,3 8 0 0,0
16.02.2019 21:00:00 10,3 9,1 11 6 Z 1021,7 8 0 0,0
16.02.2019 20:00:00 10,4 9,2 9 5 - 1022,1 7 0 0,0
16.02.2019 19:00:00 10,6 9,5 13 7 Z 1022,3 7 0 0,0
16.02.2019 18:00:00 10,9 9,8 16 9 Z 1022,1 5 0 0,0
16.02.2019 17:00:00 11,2 9,8 15 8 Z 1022,0 10 0 0,0
16.02.2019 16:00:00 11,5 9,9 16 9 Z 1022,1 8 0 0,0
16.02.2019 15:00:00 11,8 10,0 15 8 ZZW 1022,6 10 0 0,0
16.02.2019 14:00:00 11,7 10,0 18 10 ZZW 1022,9 9 0 0,0
16.02.2019 13:00:00 11,4 9,8 15 8 Z 1023,3 8 0 0,0
16.02.2019 12:00:00 11,2 9,9 16 9 ZZW 1023,7 6 0 0,0
16.02.2019 11:00:00 10,5 9,5 15 8 Z 1023,8 5 0 0,0
16.02.2019 10:00:00 9,6 8,7 16 9 ZZW 1023,5 3,6 0 0,0
16.02.2019 09:00:00 9,2 8,3 15 8 ZZW 1023,3 3,6 0 0,0
16.02.2019 08:00:00 8,9 8,1 13 7 ZZW 1023,2 3,0 0 0,0
16.02.2019 07:00:00 7,4 6,8 11 6 Z 1023,0 2,9 0 0,0
16.02.2019 06:00:00 6,1 5,5 4 2 - 1022,7 3,2 0 0,0
16.02.2019 05:00:00 5,0 4,4 11 6 Z 1022,4 2,6 0 0,0
16.02.2019 04:00:00 3,9 3,0 5 3 ZZW 1022,3 2,9 0 0,0
16.02.2019 03:00:00 5,0 3,9 8 4 WZW 1022,7 3,2 0 0,0
16.02.2019 02:00:00 4,5 3,9 5 3 - 1023,1 4,7 0 0,0
16.02.2019 01:00:00 4,4 3,2 5 3 - 1023,4 5 0 0,0
16.02.2019 00:00:00 3,7 2,1 5 3 ZO 1023,7 6 - 0,0
15.02.2019 23:00:00 5,9 3,9 5 3 - 1023,9 7 0 0,0
15.02.2019 22:00:00 6,5 3,6 9 5 ZW 1024,3 8 0 0,0
15.02.2019 21:00:00 7,2 3,2 11 6 ZW 1024,6 10 0 0,0
15.02.2019 20:00:00 8,6 1,7 13 7 ZZW 1024,6 21 0 0,0
15.02.2019 19:00:00 9,8 1,8 16 9 Z 1024,8 10 0 0,0
15.02.2019 18:00:00 10,7 3,4 9 5 ZZO 1024,9 10 0 0,0

tt = temperatuur
td = dauwpunt
ff = windsnelheid
dd = windrichting
ppp = luchtdruk
vv = zicht
sd = Zonneschijnduur
rr = neerslag

Weerstations in de omgeving